ROMMA est une association bénévole à but non lucratif. Votre soutien est indispensable : ADHERER à ROMMA ou FAIRE un DON

Montélimar - (26, Drôme)

Basse vallée du Rhône (88 m)   Longitude: 04° 45' E   Latitude: 44° 32' N Station partenaire n°164
 

Détail journalier du     <<     >>

Température Precipitation Humidité Pression Vent Dir Rafale Dir. rafale Ensol.
Heure (°C) (mm) (%) (hPa) (km/h) (km/h) (min)
01:00 22.2065101600---0
02:00 21.5067101600---0
03:00 19.8072101600---0
04:00 18.7074101600---0
05:00 17.8077101600---0
06:00 17.2078101600---0
07:00 18.10751015010N0
08:00 20.306310163---19NE0
09:00 21.705610163---18NE59
10:00 23.604910163---24NE60
11:00 24.904510166NE26N60
12:00 27.403910155NE24NE60
13:00 28.803810148N32N60
14:00 30.0035101422NNO47NNO50
15:00 31.2035101321N39N56
16:00 32.1033101214N34N60
17:00 31.9034101216NNO31NNO60
18:00 31.3034101218N37NNO40
19:00 30.2034101217N39NNO0
20:00 28.4035101214N31NNO0
21:00 27.4036101316N37N0
22:00 26.2040101315NE34NNE0
23:00 25.3043101318NE35NNE0
minuit 24.3048101416N32N0

Graphique du 17-09-2019

 

Serveur OMMA